Погода в Сургуте

Погода в Сургуте : погода сейчас, прогноз погоды и архив. Всё, что Вы хотите узнать о погоде в Сургуте!

Хотите узнать прогноз погоды в Сургуте? Тогда Вам сюда: Погода в Сургуте

Поиск расширенной информации на нашем сайте:

Другие новости

Новости СМИ2

Главная страница сайта

Новости сайта

02.10.2013

Напоминаем, что на нашем новом сайте вы можете получить высокодетализированные прогнозы погоды по пунктам России, СНГ и мира (включающие важные для авиации метеовеличины, такие как направление и скорость ветра, видимость, явления погоды, количество и форма облачности, нижняя и верхняя граница облачности), а также ознакомиться с разнообразными материалами по авиационной метеорологии и подборкой полезных ссылок на эту тему.

Сайт Метеоцентр.Азия посвящён разработке технологий оптимизации авиаметеорологического обслуживания, включая проектирование и перспективное создание нескольких автоматизированных авиаметеорологических систем:
- система выпуска высокодетальных прогностических карт явлений погоды для нижнего воздушного пространства по России и ближнему зарубежью;
- система верификации прогнозов TAF (выпускаемых синоптиками официальных АМСГ РФ и ближнего зарубежья) и AUTOTAF (выпускаемых сайтом Метеоцентр.Азия) - выявление ошибок, онлайн-сопоставление с фактической погодой METAR, автоматическое внесение коррективов в прогнозы при резком отклонении фактической погоды от прогноза, подсчёт оправдываемости прогнозов по элементам и в целом;
- система обработки, анализа и отображения авиаметеорологической информации для применения провайдерами метеорологической информации.

Рекомендуем: Переработка пластмасс отходы полипропилена скидки.

Погода в Сургуте - сегодня

Время (UTC), дата Ветер
(°,м/с) 
Видим.   Явления Облачность Т
(°С)
Тd
(°С)
f(%) Тe
(°С)
Pmin
(гПа)
dP
(гПа)
Po
(мм)
O2
(г/м3)
Тmin Tmax R s Состояние
почвы
09 22.03.17 230 (ЮЗ) 4000 м    5/0 верхняя 
[Ci fib]
+2.7 -14.4 27 1031  -0.2  768  308           
12 22.03.17 210 (ЮЗ) 4000 м    10/0 верхняя 
[Ci sp]
+2.4 -12.6 32 1030.1  -0.9  767  307           
15 22.03.17 210 (ЮЗ) 4000 м    8/0 верхняя 
[Ci fib]
+1.1 -11.7 38 -2  1029.3  -0.8  766  309    +3       
18 22.03.17 230 (ЮЗ) 4000 м    6/0 средняя 
[Ac trans]
-0.6 -12.6 40 -4  1028.9  -0.5  766  310           
21 22.03.17 230 (ЮЗ) 4000 м    6/0 верхняя 
[Ci fib]
-1.2 -12.1 43 -4  1028.5  -0.5  766  311           
00 23.03.17 230 (ЮЗ) 4000 м    9/0 верхняя 
[Ci fib]
-2.4 -12.3 47 -6  1028.3  -0.1  766  312           
03 23.03.17 230 (ЮЗ) 4000 м    10/0 верхняя 
[Ci sp]
-2.2 -11.8 48 -6  1028.3  766  312  -2.9         
06 23.03.17 230 (ЮЗ) 4000 м    9/0 верхняя 
[Ci sp]
+0.3 -10.6 44 -4  1027.9  -0.3  765  309           
09 23.03.17 230 (ЮЗ) 4000 м    9/0 верхняя 
[Ci sp]
+3.8 -10 36 1027.3  -0.5  765  305           
12 23.03.17 220 (ЮЗ) 4000 м    6/0 верхняя 
[Ci fib]
+5.5 -9.3 34 +3  1026.1  -1.2  764  303           
15 23.03.17 200 (Ю) 4000 м    5/0 верхняя 
[Ci fib]
+2.6 -9.3 41 1025.9  -0.2  764  306    +5.9       
18 23.03.17 200 (Ю) 4000 м    ясно 
+0.6 -10.1 45 -2  1024.8  -1.2  763  308           
21 23.03.17 190 (Ю) 4000 м    ясно 
-1.8 -11.7 47 -5  1023.6  -1.3  762  310           
00 24.03.17 190 (Ю) 4000 м    8/0 средняя 
[Ac trans]
-2.6 -10.7 54 -5  1021.9  -1.7  761  311           
03 24.03.17 190 (Ю) 4000 м    4/0 средняя 
[Ac trans]
-1.9 -10.6 51 -5  1019.9  -1.9  759  309  -3.3         
06 24.03.17 180 (Ю) 4000 м    5/0 средняя 
[Ac trans]
+1.3 -9.8 43 -2  1017.6  -2.2  758  305           
09 24.03.17 180 (Ю) 4000 м    5/0 верхняя 
[Ci fib]
+3.8 -8.5 40 +1  1014.9  -2.6  756  301           
12 24.03.17 190 (Ю) 4000 м    5/0 верхняя 
[Ci fib]
+4.3 -8 40 +2  1013.3  -1.6  755  300           
15 24.03.17 190 (Ю) 4000 м    4/0 верхняя 
[Ci fib]
+2 -8.3 46 +1  1012.5  -0.9  754  302    +5.3       
18 24.03.17 170 (Ю) 4000 м    9/0 средняя 
[Ac trans]
+1.5 -8.7 47 +1  1010.3  -2.2  752  302           
21 24.03.17 090 (В) 4000 м    6/0 верхняя 
[Ci fib]
-3.6 -9 66 -6  1007.9  -2.5  750  307           
00 25.03.17 110 (В) 4000 м    6/0 верхняя 
[Ci fib]
-5.7 -10.3 70 -5  1006.1  -1.8  749  309           
03 25.03.17 100 (В) 63  0300 м    6/6 2000 м средняя 
[Ac trans]
-10.7   1005.2    748    -9.1         
06 25.03.17 300 (СЗ) 4000 м    9/9 2000 м средняя 
[Ac trans]
-0.8 -6.4 66 -4  1005  -0.1  748  303           
09 25.03.17 280 (З) 4000 м  в посл. час ливневой снег  9/4 540 м кучево-дожд., средняя 
[Cb cap|Ac trans]
+0.8 -2.8 77 -3  1006.3  1.4  749  301           
Время (UTC), дата Ветер
(°,м/с) 
Видим.   Явления Облачность Т
(°С)
Тd
(°С)
f(%) Тe
(°С)
Pmin
(гПа)
dP
(гПа)
Po
(мм)
O2
(г/м3)
Тmin Tmax R s Состояние
почвы

Для получения пояснительной информации подведите курсор к названию столбца.

ПОГОДА в Сургуте - архив

Всё, что Вы хотите узнать о погоде в Сургуте - удобно и подробно!

Выберите нужную дату (начиная с 1 января 2015* года) и нажмите кнопку "Найти".
Будут отображены архивные сводки погоды по пункту Сургут, начиная с указанной даты.


Отображать данные в формате CSV (для использования в таблицах Excel)


Внимание! Наш архив погоды предназначен исключительно для личного некоммерческого использования в познавательных целях. Если Вам необходимы официальные справки о состоянии погоды (для производственных, юридических, коммерческих и т.п. целей), обращайтесь в органы Росгидромета.

*Примечание: данная дата относится к архиву по метеостанциям СССР (Россия, СНГ, Балтия).
Архив по метеостанциям Зарубежной Европы и Азии (кроме Китая) хранится 10 дней, по другим регионам земного шара (Китай, Африка, Америка, Австралия, Океания) - 1 день.

Сургут - район местоположения метеостанции


Название, широта, долгота, высота метеостанции:
Сургут 61.2°ш. 73.6°д. 56 м над ур. моря [Российская Федерация]

Дополнительная информация

В oтличие oт бoльшинства пoгoдных сайтoв мы публикуем пoдрoбную метеoинфoрмацию в детальнoм прoфессиoнальнoм фoрмате.

Характеристики температуры и влажнoсти вoздуха измеряются на высoте 2 м в тени вдали oт зданий и деревьев.
Скoрoсть ветра измеряется на высoте 10 м (на урoвне рoста челoвека скoрoсть ветра ниже в 1.5-2 раза). Если метеoстанция нахoдится в гoрoде или в лесу, тo скoрoсть ветра занижена на 2-4 м/с пo сравнению с oткрытым местoм. Скoрoсть ветра над акватoриями крупных рек и oзёр, а также на вершинах хoлмoв на 2-5 м/с выше, чем в oбычных услoвиях.
Атмoсфернoе давление в разных тoчках местнoсти мoжет значительнo oтличаться oт давления на метеoстанции, в зависимoсти oт услoвий рельефа (при пoдъёме на 10 м давление пoнижается примернo на 1 мм рт.ст.).